Location: Unsp...
(0.0000°N, 0.0000°E)
Time: 23:44:25
(UTC+02:00)

Daily predictions for brighter satellites

Satellite Brightness Start Highest point End
(mag) Time Altitude Azimuth Time Altitude Azimuth Time Altitude Azimuth
Cosmos 1821 Rocket 4.0 20:17:30 10° S 20:23:37 64° E 20:29:38 10° NNE
Cosmos 1536 3.6 20:20:05 10° SSW 20:24:00 58° W 20:27:55 10° N
Cosmos 1980 Rocket 3.2 20:22:14 10° SSE 20:26:42 24° ESE 20:31:10 10° NE
Ariane H10+ 2.7 20:26:39 10° NW 20:28:19 18° N 20:29:48 10° NE
Ariane H10-3 3.2 20:10:11 10° W 20:29:25 88° S 20:32:59 10° E
Cosmos 1484 Rocket 2.8 20:26:37 10° SSE 20:30:20 53° E 20:33:59 10° N
Meteor 2-14 Rocket 4.4 20:25:22 10° S 20:31:29 68° E 20:37:34 10° NNE
Cosmos 968 Rocket 4.2 20:29:22 10° NNE 20:33:48 30° ENE 20:38:14 10° SE
Cosmos 1656 4.0 20:37:46 10° SSW 20:43:26 74° WNW 20:49:03 10° N
Meteor 2-4 Rocket 4.3 20:39:17 10° NNE 20:44:41 36° E 20:50:01 10° SSE
Spelda 4.4 20:46:35 10° WSW 20:49:08 46° S 20:53:27 17° ESE
Cosmos 468 Rocket 3.9 20:45:40 10° S 20:50:47 65° ESE 20:55:51 10° NNE
Abrixas rocket 4.4 20:52:06 10° SSE 20:52:57 12° SSE 20:52:57 12° SSE
Cosmos 841 Rocket 4.5 20:51:55 10° SSE 20:56:03 23° ESE 21:00:10 10° NE
Cosmos 2322 Rocket 4.1 20:57:22 10° SE 20:57:32 11° SE 20:57:32 11° SE
NOAA 12 4.0 20:57:12 10° SSE 21:02:26 65° ENE 21:07:36 10° N
VEP-3 3.3 20:56:57 10° WSW 21:02:28 70° NNW 21:14:59 10° ENE
Cosmos 1814 Rocket 3.9 20:57:47 10° S 21:03:07 73° ESE 21:08:26 10° NNE
ARIANE 5 DEB (SYLDA) 4.1 20:59:43 10° WNW 21:03:15 44° N 21:06:58 18° ENE
Cosmos 1455 Rocket 4.1 21:02:17 10° SSW 21:06:27 47° W 21:10:35 10° NNW
HJ-1C 3.5 21:08:03 41° ESE 21:08:31 45° E 21:11:39 10° N
FREGAT/IRIS 2.7 21:07:32 10° S 21:10:40 83° W 21:13:48 10° NNW
Cosmos 1025 Rocket 3.1 21:07:14 10° N 21:11:31 77° W 21:15:48 10° S
Cosmos 1975 2.7 21:08:16 10° S 21:12:22 80° E 21:16:27 10° N
Meteor 1-23 Rocket 4.2 21:08:40 10° N 21:14:23 71° E 21:20:10 10° SSE
Meteor 1-12 Rocket 4.3 21:09:57 10° S 21:15:36 79° W 21:21:18 10° N
Cosmos 2360 4.2 21:11:16 10° S 21:16:50 56° ESE 21:22:24 10° NNE
GPS 2-12 Rocket1 4.4 21:13:15 10° W 21:17:25 32° SSW 21:19:25 23° SSE
Cosmos 2227 Rocket 3.9 21:15:53 10° NNE 21:17:32 15° NE 21:17:32 15° NE
Cosmos 2123 Rocket 4.1 21:15:19 10° NNE 21:21:11 46° E 21:25:17 20° SSE
Resurs 1-3 3.6 21:22:45 49° ESE 21:23:22 54° ENE 21:27:37 10° N
Cosmos 1500 4.2 21:26:10 32° NNE 21:26:10 32° NNE 21:28:18 10° N
SJ-6B 4.2 21:21:12 10° S 21:24:43 36° WSW 21:28:10 10° NNW
Cosmos 1892 Rocket 3.5 21:21:39 10° N 21:26:07 89° WSW 21:29:58 14° S
Spot 2 Rocket 3.4 21:22:15 10° SSE 21:27:22 86° ENE 21:32:28 10° N
Cosmos 1777 Rocket 3.9 21:22:10 10° N 21:27:23 68° ENE 21:29:35 35° SSE
ARIANE 5 R/B 3.6 21:22:54 10° W 21:27:32 89° N 21:36:10 29° E
Cosmos 1153 Rocket 4.4 21:22:25 10° S 21:28:44 89° E 21:34:56 10° N
Sylda 4400 4.2 21:28:39 10° WNW 21:29:54 28° WNW 21:29:54 28° WNW
Ariane H10+ 4.3 20:46:32 10° W 21:36:30 80° N 21:42:53 37° E
METEOR-M 4.5 21:38:11 10° S 21:43:29 64° WSW 21:48:44 10° NNW
Resurs 01 Rocket 2.7 21:46:35 18° SSW 21:49:31 43° WSW 21:53:43 10° NNW
Yuri Rocket 4.4 21:46:59 10° SW 21:51:58 47° SSE 21:51:58 47° SSE
SL-16 R/B 4.2 21:52:37 10° S 21:53:34 15° S 21:53:34 15° S
BLOCK DM-SL R/B 4.5 21:55:02 10° W 22:00:43 90° S 22:04:59 48° E
Cosmos 2173 Rocket 4.0 21:59:21 10° S 22:05:44 80° W 22:12:05 10° N
Cosmos 1980 Rocket 4.4 22:06:04 10° SW 22:10:24 23° WNW 22:14:46 10° NNW
CZ-3C R/B 4.2 21:45:21 10° WNW 22:17:07 29° NNW 22:21:22 22° NNE
